Please be sure to check the latest weather conditions by clicking the link and viewing our local weather information!

Check Weather

Welcome to Lakeway Airpark (3R9)

FromTheAir

We’re a community airpark nestled within the town of Lakeway, Texas (17 miles northwest of downtown Austin).

Lakeway Airpark, Inc. was formed by Lakeway residents and interested parties to own and manage Lakeway Airpark (3R9).

The Airpark is a privately owned not for profit public use airport for residents and guests of Lakeway. No public funds are used and the airport is supported by fees and fuel sales at the airport.

Lakeway Airpark is an unmanned facility open for use from Sunrise to Sunset seven days a week. Takeoffs and landings are not permitted at night, between Sunset and Sunrise, by City Ordinance.

Quick Weather Info

Available data for KAUS from the past 2 hours

METAR
KAUS 210153Z 08003KT 10SM BKN200 18/16 A3002 RMK AO2 SLP160 T01830156
KAUS 210053Z 08005KT 10SM BKN200 BKN250 22/16 A3001 RMK AO2 SLP156 T02170156
TAF
KAUS 202323Z 2100/2206 09006KT P6SM FEW030 SCT200 FM211000 VRB03KT 6SM BR SCT030 FM211500 08007KT P6SM FEW040 SCT050